Location: Fluertsh�userhof
(48.7537°N, 10.3850°E)
Time: 15:48:11
(UTC+00:00)

Cosmos 1626 - Pass Details

Date: 18 September 2020
Orbit: 490 x 495 km, 82.5° (Epoch: 24 October)

Event Time Altitude Azimuth Distance (km) Brightness Sun altitude
Rises 18:38:07 0° 7° (N) 2,590 5.9 -12.8°
Reaches altitude 10° 18:41:14 10° 36° (NE) 1,700 4.6 -13.3°
Enters shadow 18:42:48 13° 61° (ENE) 1,512 4.2 -13.5°
